Fremont, NE

6:46 AM CDT on June 27, 2017 (GMT -0500)
Fremont Municipal

Weather History for KFET - December, 2015

Change the Weather History Date:

Thursday, December 10, 2015

  Actual Average Record
Temperature  
Mean Temperature 46 °F -  
Max Temperature 59 °F 38 °F 60 °F (1957)
Min Temperature 33 °F 18 °F -6 °F (1948)
Degree Days  
Heating Degree Days 19    
Moisture  
Dew Point 30 °F    
Average Humidity 50    
Maximum Humidity 79    
Minimum Humidity 23    
Precipitation  
Precipitation 0.00 in - - ()
Sea Level Pressure  
Sea Level Pressure 29.59 in    
Wind  
Wind Speed 10 mph (WSW)    
Max Wind Speed 22 mph    
Max Gust Speed 28 mph    
Visibility 10 miles    
Events      
Averages and records for this station are not official NWS values.
T = Trace of Precipitation, MM = Missing Value Source: NWS Daily Summary

Daily Weather History Graph

Daily Weather History Graph

Search for Another Location

Airport or City:

Trip Planner

Search our weather history database for the weather conditions in past years. The results will help you decide how hot, cold, wet, or windy it might be!

Date:

Astronomy

Dec. 10, 2015 Rise Set
Actual Time 7:41 AM CST 4:56 PM CST
Civil Twilight 7:10 AM CST 5:27 PM CST
Nautical Twilight 6:35 AM CST 6:02 PM CST
Astronomical Twilight 6:01 AM CST 6:35 PM CST
Moon 6:39 AM CST (12/10) 4:51 PM CST (12/10)
Length of Visible Light 10h 17m
Length of Day
9h 15m
Waning Crescent, 1% of the Moon is Illuminated
Dec 10
Waning Crescent
Dec 11
New
Dec 18
First Quarter
Dec 25
Full
Jan 1
Last Quarter

Hourly Weather History & Observations

Time (CST) Temp. Windchill Dew Point Humidity Pressure Visibility Wind Dir Wind Speed Gust Speed Precip Events Conditions
12:15 AM 48.7 °F - 36.1 °F 62% 29.46 in 10.0 mi South 3.5 mph - N/A   Clear
12:35 AM 48.9 °F - 36.1 °F 61% 29.45 in 10.0 mi SSW 3.5 mph - N/A   Clear
12:55 AM 48.9 °F - 36.1 °F 61% 29.44 in 10.0 mi South 3.5 mph - N/A   Clear
1:15 AM 48.7 °F - 36.0 °F 61% 29.44 in 10.0 mi SSW 5.8 mph - N/A   Clear
1:35 AM 49.8 °F - 35.8 °F 59% 29.43 in 10.0 mi SW 8.1 mph - N/A   Clear
1:55 AM 50.0 °F - 35.6 °F 58% 29.43 in 10.0 mi SW 9.2 mph - N/A   Clear
2:15 AM 50.0 °F - 34.9 °F 56% 29.43 in 10.0 mi SW 12.7 mph 18.4 mph N/A   Clear
2:35 AM 49.8 °F - 34.3 °F 55% 29.43 in 10.0 mi SW 8.1 mph - N/A   Clear
2:55 AM 49.5 °F - 34.0 °F 55% 29.43 in 10.0 mi SW 8.1 mph - N/A   Clear
3:15 AM 50.5 °F - 33.3 °F 52% 29.43 in 10.0 mi SW 10.4 mph 17.3 mph N/A   Clear
3:35 AM 49.8 °F - 33.8 °F 54% 29.42 in 10.0 mi SW 12.7 mph - N/A   Clear
3:55 AM 50.2 °F - 33.3 °F 52% 29.42 in 10.0 mi SSW 10.4 mph - N/A   Clear
4:15 AM 49.3 °F - 33.3 °F 54% 29.42 in 10.0 mi SW 10.4 mph - N/A   Clear
4:35 AM 48.4 °F - 33.1 °F 56% 29.42 in 10.0 mi SSW 12.7 mph - N/A   Clear
4:55 AM 48.6 °F - 32.9 °F 55% 29.43 in 10.0 mi SW 11.5 mph - N/A   Clear
5:15 AM 49.5 °F - 32.9 °F 53% 29.46 in 10.0 mi SW 13.8 mph - N/A   Clear
5:35 AM 52.5 °F - 32.0 °F 46% 29.47 in 10.0 mi WSW 15.0 mph 24.2 mph N/A   Clear
5:55 AM 52.9 °F - 32.0 °F 45% 29.50 in 10.0 mi West 18.4 mph 23.0 mph N/A   Clear
6:15 AM 51.1 °F - 34.0 °F 52% 29.52 in 10.0 mi West 17.3 mph 27.6 mph N/A   Clear
6:35 AM 48.7 °F - 36.5 °F 63% 29.54 in 10.0 mi WNW 18.4 mph 25.3 mph N/A   Clear
6:55 AM 48.2 °F - 37.2 °F 66% 29.56 in 10.0 mi WNW 18.4 mph - N/A   Clear
7:15 AM 48.6 °F - 37.4 °F 65% 29.58 in 10.0 mi West 20.7 mph 25.3 mph N/A   Clear
7:35 AM 48.2 °F - 37.4 °F 66% 29.59 in 10.0 mi West 17.3 mph 21.9 mph N/A   Clear
7:55 AM 47.8 °F - 37.4 °F 67% 29.60 in 10.0 mi West 16.1 mph - N/A   Clear
8:15 AM 47.3 °F - 37.4 °F 68% 29.62 in 10.0 mi WNW 16.1 mph 23.0 mph N/A   Clear
8:35 AM 50.2 °F - 38.1 °F 63% 29.65 in 10.0 mi WNW 17.3 mph 26.5 mph N/A   Mostly Cloudy
8:55 AM 49.3 °F - 36.9 °F 62% 29.67 in 10.0 mi WNW 19.6 mph 26.5 mph N/A   Overcast
9:15 AM 49.8 °F - 36.7 °F 61% 29.67 in 10.0 mi WNW 15.0 mph 26.5 mph N/A   Mostly Cloudy
9:35 AM 49.1 °F - 36.9 °F 63% 29.68 in 10.0 mi West 15.0 mph 23.0 mph N/A   Scattered Clouds
9:55 AM 50.0 °F - 37.2 °F 62% 29.68 in 10.0 mi West 15.0 mph - N/A   Clear
10:15 AM 50.5 °F - 37.0 °F 60% 29.69 in 10.0 mi West 16.1 mph 20.7 mph N/A   Clear
10:35 AM 51.4 °F - 36.1 °F 56% 29.69 in 10.0 mi West 12.7 mph - N/A   Clear
10:55 AM 52.7 °F - 36.5 °F 54% 29.69 in 10.0 mi West 13.8 mph - N/A   Clear
11:15 AM 53.4 °F - 36.0 °F 52% 29.68 in 10.0 mi West 18.4 mph - N/A   Clear
11:35 AM 54.5 °F - 34.3 °F 47% 29.67 in 10.0 mi West 18.4 mph - N/A   Clear
11:55 AM 55.9 °F - 33.1 °F 42% 29.67 in 10.0 mi West 21.9 mph 26.5 mph N/A   Clear
12:15 PM 57.2 °F - 29.3 °F 35% 29.66 in 10.0 mi West 21.9 mph - N/A   Clear
12:35 PM 57.7 °F - 26.8 °F 31% 29.66 in 10.0 mi WNW 19.6 mph 26.5 mph N/A   Clear
12:55 PM 58.3 °F - 25.9 °F 29% 29.66 in 10.0 mi WNW 21.9 mph 25.3 mph N/A   Clear
1:15 PM 58.6 °F - 24.3 °F 27% 29.65 in 10.0 mi WNW 19.6 mph - N/A   Clear
1:35 PM 59.4 °F - 23.4 °F 25% 29.64 in 10.0 mi West 17.3 mph - N/A   Clear
1:55 PM 59.4 °F - 21.4 °F 23% 29.63 in 10.0 mi WNW 16.1 mph - N/A   Clear
2:15 PM 59.0 °F - 21.4 °F 23% 29.62 in 10.0 mi WNW 18.4 mph 26.5 mph N/A   Clear
2:35 PM 59.0 °F - 21.9 °F 24% 29.61 in 10.0 mi WNW 19.6 mph 26.5 mph N/A   Clear
2:55 PM 58.6 °F - 21.4 °F 24% 29.62 in 10.0 mi WNW 20.7 mph - N/A   Clear
3:15 PM 58.1 °F - 23.4 °F 26% 29.62 in 10.0 mi West 12.7 mph - N/A   Clear
3:35 PM 57.0 °F - 22.8 °F 27% 29.62 in 10.0 mi West 13.8 mph - N/A   Clear
3:55 PM 56.5 °F - 24.1 °F 29% 29.63 in 10.0 mi West 9.2 mph - N/A   Clear
4:15 PM 55.2 °F - 23.4 °F 29% 29.64 in 10.0 mi West 8.1 mph - N/A   Clear
4:35 PM 53.2 °F - 22.8 °F 31% 29.65 in 10.0 mi WSW 5.8 mph - N/A   Clear
4:55 PM 52.7 °F - 22.6 °F 31% 29.65 in 10.0 mi WSW 3.5 mph - N/A   Clear
5:15 PM 52.2 °F - 22.8 °F 32% 29.64 in 10.0 mi SSW 4.6 mph - N/A   Clear
5:35 PM 50.0 °F - 23.5 °F 36% 29.64 in 10.0 mi SSW 4.6 mph - N/A   Clear
5:55 PM 48.0 °F - 24.6 °F 40% 29.64 in 10.0 mi SSW 4.6 mph - N/A   Clear
6:15 PM 48.2 °F - 24.8 °F 40% 29.63 in 10.0 mi SSW 5.8 mph - N/A   Clear
6:35 PM 48.2 °F - 25.9 °F 42% 29.65 in 10.0 mi SW 8.1 mph - N/A   Clear
6:55 PM 47.3 °F - 26.4 °F 44% 29.65 in 10.0 mi SW 8.1 mph - N/A   Clear
7:15 PM 47.5 °F - 26.4 °F 44% 29.65 in 10.0 mi SSW 9.2 mph - N/A   Clear
7:35 PM 46.8 °F - 26.4 °F 45% 29.64 in 10.0 mi SW 9.2 mph - N/A   Clear
7:55 PM 45.5 °F 40.8 °F 26.8 °F 48% 29.65 in 10.0 mi SW 9.2 mph - N/A   Clear
8:15 PM 45.0 °F 41.2 °F 26.8 °F 49% 29.65 in 10.0 mi SW 6.9 mph - N/A   Clear
8:35 PM 42.8 °F 41.1 °F 27.1 °F 54% 29.64 in 10.0 mi WNW 3.5 mph - N/A   Clear
8:55 PM 39.4 °F - 27.5 °F 62% 29.65 in 10.0 mi Calm Calm - N/A   Clear
9:15 PM 40.3 °F - 27.5 °F 60% 29.65 in 10.0 mi Calm Calm - N/A   Clear
9:35 PM 40.3 °F - 27.5 °F 60% 29.65 in 10.0 mi Calm Calm - N/A   Clear
9:55 PM 38.7 °F - 27.5 °F 64% 29.65 in 10.0 mi Calm Calm - N/A   Clear
10:15 PM 37.4 °F - 27.9 °F 68% 29.65 in 10.0 mi Calm Calm - N/A   Clear
10:35 PM 35.1 °F - 28.0 °F 76% 29.65 in 10.0 mi Calm Calm - N/A   Clear
10:55 PM 36.3 °F - 27.7 °F 71% 29.65 in 10.0 mi Calm Calm - N/A   Clear
11:15 PM 36.7 °F - 27.3 °F 69% 29.65 in 10.0 mi Calm Calm - N/A   Clear
11:35 PM 33.1 °F - 27.1 °F 79% 29.65 in 10.0 mi Calm Calm - N/A   Clear
11:55 PM 36.0 °F - 28.0 °F 73% 29.65 in 10.0 mi Calm Calm - N/A   Clear